TimeCEST,TemperatureF,Dew PointF,Humidity,Sea Level PressureIn,VisibilityMPH,Wind Direction,Wind SpeedMPH,Gust SpeedMPH,PrecipitationIn,Events,Conditions,WindDirDegrees,DateUTC
12:00 AM,66.2,59.0,78,30.18,6.2,NE,3.5,-,N/A,,Partly Cloudy,40,2013-10-05 22:00:00
12:30 AM,66.2,59.0,78,30.18,6.2,NE,1.2,-,N/A,,Partly Cloudy,50,2013-10-05 22:30:00
1:00 AM,66.2,59.0,78,30.18,6.2,Calm,Calm,-,N/A,,Partly Cloudy,0,2013-10-05 23:00:00
1:30 AM,64.4,59.0,83,30.18,6.2,Calm,Calm,-,N/A,,Partly Cloudy,0,2013-10-05 23:30:00
2:00 AM,62,58,84,30.19,9,Calm,Calm,,,,Scattered Clouds,,2013-10-06 00:00:00
2:00 AM,62.6,59.0,88,30.18,6.2,Calm,Calm,-,N/A,,Partly Cloudy,0,2013-10-06 00:00:00
2:30 AM,62.6,59.0,88,30.18,6.2,Calm,Calm,-,N/A,,Partly Cloudy,0,2013-10-06 00:30:00
3:00 AM,60.8,57.2,88,30.15,6.2,Calm,Calm,-,N/A,,Partly Cloudy,0,2013-10-06 01:00:00
3:30 AM,60.8,57.2,88,30.15,6.2,ENE,2.3,-,N/A,,Partly Cloudy,70,2013-10-06 01:30:00
4:00 AM,60.8,57.2,88,30.15,6.2,Calm,Calm,-,N/A,,Partly Cloudy,0,2013-10-06 02:00:00
4:30 AM,59.0,57.2,94,30.15,6.2,Variable,1.2,-,N/A,,Partly Cloudy,0,2013-10-06 02:30:00
5:00 AM,59.0,57.2,94,30.15,6.2,Calm,Calm,-,N/A,,Partly Cloudy,0,2013-10-06 03:00:00
5:30 AM,59.0,57.2,94,30.15,6.2,NE,2.3,-,N/A,,Partly Cloudy,50,2013-10-06 03:30:00
6:00 AM,60.8,57.2,88,30.15,6.2,Variable,2.3,-,N/A,,Partly Cloudy,0,2013-10-06 04:00:00
6:30 AM,60.8,57.2,88,30.15,6.2,North,3.5,-,N/A,,Partly Cloudy,10,2013-10-06 04:30:00
7:00 AM,60.8,59.0,94,30.15,6.2,Variable,1.2,-,N/A,,Partly Cloudy,0,2013-10-06 05:00:00
7:30 AM,64.4,59.0,83,30.15,6.2,Variable,1.2,-,N/A,,Partly Cloudy,0,2013-10-06 05:30:00
8:00 AM,63,59,83,30.16,14,Calm,Calm,,,,Partly Cloudy,,2013-10-06 06:00:00
8:00 AM,62.6,59.0,88,30.15,6.2,Calm,Calm,-,N/A,,Partly Cloudy,0,2013-10-06 06:00:00
8:30 AM,64.4,59.0,83,30.15,6.2,Variable,1.2,-,N/A,,Partly Cloudy,0,2013-10-06 06:30:00
9:00 AM,66.2,60.8,83,30.18,6.2,Variable,1.2,-,N/A,,Partly Cloudy,0,2013-10-06 07:00:00
9:30 AM,69.8,59.0,68,30.18,6.2,Calm,Calm,-,N/A,,Partly Cloudy,0,2013-10-06 07:30:00
10:00 AM,73.4,59.0,61,30.18,6.2,NE,6.9,-,N/A,,Scattered Clouds,50,2013-10-06 08:00:00
10:30 AM,75.2,59.0,57,30.18,6.2,ENE,11.5,-,N/A,,Scattered Clouds,60,2013-10-06 08:30:00
11:00 AM,75.2,57.2,53,30.18,6.2,ENE,13.8,-,N/A,,Partly Cloudy,70,2013-10-06 09:00:00
11:30 AM,75.2,55.4,50,30.18,6.2,ENE,13.8,-,N/A,,Scattered Clouds,70,2013-10-06 09:30:00
12:00 PM,77.0,57.2,50,30.18,6.2,ENE,10.4,-,N/A,,Scattered Clouds,60,2013-10-06 10:00:00
12:30 PM,77.0,55.4,47,30.18,6.2,ENE,11.5,-,N/A,,Scattered Clouds,70,2013-10-06 10:30:00
1:00 PM,78.8,53.6,42,30.18,6.2,ENE,12.7,-,N/A,,Scattered Clouds,70,2013-10-06 11:00:00
1:30 PM,77.0,53.6,44,30.18,6.2,ENE,11.5,23.0,N/A,,Scattered Clouds,60,2013-10-06 11:30:00
2:00 PM,79,55,32,30.17,19,ENE,13.8,,,,Partly Cloudy,60,2013-10-06 12:00:00
2:00 PM,77.0,55.4,47,30.15,6.2,ENE,10.4,-,N/A,,Scattered Clouds,70,2013-10-06 12:00:00
2:30 PM,77.0,55.4,47,30.15,6.2,East,10.4,-,N/A,,Scattered Clouds,90,2013-10-06 12:30:00
3:00 PM,77.0,55.4,47,30.15,6.2,ENE,11.5,-,N/A,,Scattered Clouds,60,2013-10-06 13:00:00
3:30 PM,77.0,55.4,47,30.15,6.2,NE,8.1,-,N/A,,Scattered Clouds,50,2013-10-06 13:30:00
4:00 PM,77.0,55.4,47,30.15,6.2,ENE,3.5,-,N/A,,Scattered Clouds,70,2013-10-06 14:00:00
4:11 PM,71.6,59.0,64,30.15,5.6,Variable,2.3,-,N/A,Rain,Rain,0,2013-10-06 14:11:00
4:30 PM,69.8,60.8,73,30.15,6.2,NW,11.5,25.3,N/A,Rain,Light Rain,310,2013-10-06 14:30:00
5:00 PM,69.8,62.6,78,30.15,6.2,SE,9.2,-,N/A,Rain,Heavy Rain,130,2013-10-06 15:00:00
5:12 PM,68.0,60.8,78,30.15,6.2,SSE,9.2,-,N/A,Rain,Light Rain,150,2013-10-06 15:12:00
5:30 PM,68.0,60.8,78,30.15,6.2,SSE,6.9,-,N/A,Rain,Light Rain,150,2013-10-06 15:30:00
6:00 PM,68.0,60.8,78,30.15,6.2,SE,5.8,-,N/A,,Scattered Clouds,130,2013-10-06 16:00:00
6:30 PM,68.0,60.8,78,30.15,6.2,East,4.6,-,N/A,,Scattered Clouds,100,2013-10-06 16:30:00
7:00 PM,66.2,60.8,83,30.15,6.2,ESE,3.5,-,N/A,,Scattered Clouds,120,2013-10-06 17:00:00
7:30 PM,66.2,60.8,83,30.15,6.2,ENE,3.5,-,N/A,,Scattered Clouds,70,2013-10-06 17:30:00
8:00 PM,65,62,85,30.17,17,NE,4.6,,,,Partly Cloudy,50,2013-10-06 18:00:00
8:00 PM,66.2,60.8,83,30.15,6.2,East,3.5,-,N/A,,Scattered Clouds,90,2013-10-06 18:00:00
8:30 PM,64.4,60.8,88,30.15,6.2,NE,6.9,-,N/A,,Partly Cloudy,40,2013-10-06 18:30:00
9:00 PM,64.4,60.8,88,30.18,6.2,NE,6.9,-,N/A,,Scattered Clouds,40,2013-10-06 19:00:00
9:30 PM,66.2,60.8,83,30.18,6.2,ENE,4.6,-,N/A,,Partly Cloudy,60,2013-10-06 19:30:00
10:00 PM,64.4,60.8,88,30.18,6.2,NE,4.6,-,N/A,,Partly Cloudy,50,2013-10-06 20:00:00
10:30 PM,64.4,59.0,83,30.18,6.2,NE,6.9,-,N/A,,Partly Cloudy,50,2013-10-06 20:30:00
11:00 PM,62.6,59.0,88,30.18,6.2,NE,2.3,-,N/A,,Partly Cloudy,50,2013-10-06 21:00:00
11:30 PM,62.6,60.8,94,30.18,6.2,ENE,2.3,-,N/A,,Partly Cloudy,70,2013-10-06 21:30:00